Retour au catalogue

DELTA 1 DEB

ActifSSO
NORAD 21754·DEBRIS·🇺🇸 United States

Lancé Jun 12, 1975 depuis Vandenberg Space Force Base

Loading…

Prochains Passages (prochaines 24 heures)

TLE

FraisSource: Space-Track

Époque: Sep 14, 2026, 14:04 UTC

1 21754U 75052JQ  26257.58633293  .00000116  00000-0  30932-3 0  9997
2 21754 100.0475 180.1198 0076268 107.1432  66.1383 13.35347834709221

Suivez DELTA 1 DEB en temps réel avec AllMySat

Download on the App Store